Flag for U.S.A. Weather past 2 weeks in Spokane, Washington, U.S.A.

Now
58 °F

Partly sunny.


Feels Like: 55 °F
Forecast: 44 / 59 °F
Wind: 13 mph from Southwest

Location: Felts Field

Current Time: Oct 21, 2014 at 5:27:13 PM

Latest Report: Oct 21, 2014 at 4:53 PM


Visibility: 10 mi

Pressure: 29.94 "Hg

Humidity: 54%

Dew point: 41 °F

Location of SpokaneLocation

Historic Weather in Spokane — Graph

°F

Spokane temperature yesterday

Maximum temperature yesterday: 71 °F (at 1:53 PM)
Minimum temperature yesterday: 45 °F (at 3:53 AM)
Average temperature yesterday: 57 °F

Past Weeks' High & Low Weather Summary

 TemperatureHumidityPressure
High83 °F (Oct 7, 3:53 PM)93% (Oct 15, 4:53 AM)30.21 "Hg (Oct 15, 4:53 AM)
Low39 °F (Oct 17, 3:53 AM)18% (Oct 13, 3:53 PM)29.55 "Hg (Oct 15, 4:53 AM)
Average56 °F63%29.92 "Hg
* Reported Oct 6 3:53 PM — Oct 21 3:53 PM, Spokane, Weather by CustomWeather, © 2014

Note: Actual official high and low records may vary slightly from our data, if they occured in-between our weather recording intervals... More about our weather records

Advertising

Spokane weather history for previous 24 hours

 ConditionsComfort  
Time TempWeatherWind HumidityBarometerVisibility
3:53 PM
Oct 21
61 °FOvercast.10 mph48%29.93 "Hg10 mi
2:53 PM60 °FMostly cloudy.14 mph47%29.92 "Hg10 mi
1:53 PM59 °FBroken clouds.10 mph54%29.91 "Hg10 mi
12:53 PM57 °FPartly sunny.14 mph58%29.91 "Hg10 mi
11:53 AM54 °FOvercast.12 mph67%29.92 "Hg10 mi
10:53 AM51 °FOvercast.12 mph77%29.92 "Hg10 mi
9:53 AM51 °FOvercast.9 mph77%29.90 "Hg10 mi
9:00 AM50 °FOvercast.7 mph80%29.90 "Hg10 mi
7:53 AM50 °FOvercast.9 mph80%29.87 "Hg10 mi
6:53 AM51 °FOvercast.6 mph77%29.86 "Hg10 mi
5:53 AM51 °FOvercast.3 mph80%29.84 "Hg10 mi
4:53 AM52 °FOvercast.5 mph77%29.83 "Hg10 mi
3:53 AM51 °FOvercast.7 mph80%29.82 "Hg10 mi
2:53 AM51 °FMostly cloudy.No wind80%29.81 "Hg10 mi
1:53 AM52 °FLight rain. Overcast.7 mph80%29.84 "Hg10 mi
12:53 AM53 °FMostly cloudy.6 mph74%29.81 "Hg10 mi
11:53 PM
Oct 20
55 °FOvercast.No wind67%29.82 "Hg10 mi
10:53 PM56 °FOvercast.14 mph60%29.83 "Hg10 mi
9:53 PM57 °FOvercast.14 mph60%29.79 "Hg10 mi
8:53 PM60 °FOvercast.14 mph65%29.76 "Hg10 mi
7:53 PM62 °FPassing clouds.17 mph60%29.74 "Hg10 mi
6:53 PM64 °FPassing clouds.8 mph49%29.72 "Hg10 mi
5:53 PM66 °FOvercast.No wind47%29.70 "Hg10 mi
Weather by CustomWeather, © 2014

See weather overviewHow to use our weather pages